This is the latest recevied weather packets stored in our database for station/object DO1SC. If no packets are shown the sender has not sent any weather packets the latest 10 day(s).
| Time | Temp. | Humidity | Pressure | Rain* | Wind** | Luminosity | Snow |
|---|---|---|---|---|---|---|---|
| 1777469721 | 11.11° C | 36% | 1026.4 hPa | - | - | 548 W/m² | - |
| 1777469133 | 11.67° C | 35% | 1026.4 hPa | - | - | 567 W/m² | - |
| 1777468524 | 11.67° C | 36% | 1026.3 hPa | - | - | 588 W/m² | - |
| 1777467936 | 11.67° C | 38% | 1026.4 hPa | - | - | 602 W/m² | - |
| 1777467327 | 11.67° C | 37% | 1026.3 hPa | - | - | 615 W/m² | - |
| 1777466722 | 11.67° C | 38% | 1026.2 hPa | - | - | 629 W/m² | - |
| 1777466130 | 11.67° C | 40% | 1026.3 hPa | - | - | 635 W/m² | - |
| 1777465525 | 11.11° C | 38% | 1026.4 hPa | - | - | 648 W/m² | - |
| 1777464933 | 11.67° C | 38% | 1026.4 hPa | - | - | 648 W/m² | - |
| 1777464324 | 11.67° C | 37% | 1026.4 hPa | - | - | 662 W/m² | - |
| 1777463739 | 11.67° C | 35% | 1026.5 hPa | - | - | 660 W/m² | - |
| 1777463128 | 11.11° C | 37% | 1026.3 hPa | - | - | 665 W/m² | - |
| 1777462518 | 11.11° C | 35% | 1026.5 hPa | - | - | 669 W/m² | - |
| 1777461929 | 11.11° C | 38% | 1026.5 hPa | - | - | 667 W/m² | - |
| 1777461321 | 11.11° C | 40% | 1026.4 hPa | - | - | 668 W/m² | - |
| 1777460732 | 11.11° C | 39% | 1026.5 hPa | - | - | 669 W/m² | - |
| 1777460123 | 11.11° C | 37% | 1026.4 hPa | - | - | 666 W/m² | - |
| 1777459535 | 11.11° C | 38% | 1026.5 hPa | - | - | 666 W/m² | - |
| 1777458927 | 10.56° C | 36% | 1026.5 hPa | - | - | 661 W/m² | - |
| 1777458318 | 11.11° C | 36% | 1026.4 hPa | - | - | 655 W/m² | - |
| 1777457730 | 11.11° C | 35% | 1026.5 hPa | - | - | 649 W/m² | - |
| 1777457121 | 11.11° C | 36% | 1026.4 hPa | - | - | 640 W/m² | - |
| 1777456533 | 11.11° C | 36% | 1026.3 hPa | - | - | 627 W/m² | - |
| 1777455925 | 11.11° C | 36% | 1026.3 hPa | - | - | 615 W/m² | - |
| 1777455316 | 11.11° C | 35% | 1026.4 hPa | - | - | 605 W/m² | - |
* Rain since midnight (hover to see other rain measurements)
** Current wind speed in m/s (hover to see current wind gust speed)